User: anonymous   Login
Location: Laterina
(43.5167°N, 11.7167°E)
Time: 01:20:53
(UTC+00:00)
Language:

CUBEBUG 2 - Orbit

View from above orbital plane
View from above orbital plane
View from above satellite
View from above satellite

Ground track
Ground track

The orbit data is extracted from the following two-line orbital elements,

1 39440U 13066AA  21057.15340292  .00000296  00000-0  48021-4 0  9993
2 39440  97.6630  32.0806 0078610 236.1423 123.2290 14.76169955390009
Epoch (UTC): 26 February 2021 03:40:54
Eccentricity: 0.0078610
inclination: 97.6630°
perigee height: 586 km
apogee height: 696 km
right ascension of ascending node: 32.0806°
argument of perigee: 236.1423°
revolutions per day: 14.76169955
mean anomaly at epoch: 123.2290°
orbit number at epoch: 39000

The dashed part of the orbit path shows where the satellite is in the earth's shadow,  

DLR